Terug naar catalogus

STARLINK-35311

ActiefCommunicatieVLEO
NORAD 66032·PAYLOAD·🇺🇸 United States

Gelanceerd Oct 16, 2025 vanaf Cape Canaveral Space Force Station

Loading…

Volgende Passages (komende 24 uur)

TLE

VersSource: CelesTrak SupGP

Epoch: Sep 14, 2026, 21:10 UTC

1 66032C 25232AD  26257.88243056  .00006052  00000+0  17887-3 0  2572
2 66032  53.1583 301.6713 0001255  92.9397 149.0536 15.34377091    16

Volg STARLINK-35311 in realtime met AllMySat

Download on the App Store